Starlink 5284

operational
NORAD ID: 55297 Int'l Des: 2023-010 Owner: SPXS Country: US Constellation: starlink
LEOCIRCULAR

关于 Starlink 5284

正在加载描述...

实时位置

正在加载3D地球...

即将过境

高度历史

Altitude vs Time

uPlot chart will show altitude changes over time

两行轨道根数

1 55297U 23010AE 26062.16628721 -.00003670 00000-0 -30014-3 0 9992
2 55297 70.0013 40.8407 0002786 267.0192 93.0648 14.98306157172299
Epoch: Mar 3, 2026 • Age: 28 hours

当前状态

高度 584.2 km
速度 7.57 km/s
星下点 62.69°N, 144.26°W
发射日期 Jan 19, 2023
运行时间 3.1 years
类型 internet

技术详情

分类 Payload
质量 305.00 kg
干质量 290.00 kg
总质量 305.00 kg
长度 0.20 m
直径 2.80 m
跨度 9.00 m
形状 Box + pan
制造商 SPXS
平台类型 Starlink
阶段状态 In Orbit
所有者/国家 SPXS/US

大型星座

Loading constellations...